Theta_e
310 310 310 310 310 310 310 310 310 310 310 310 311 311 311 311 311 311 312 312 312 312 312 313 313 313 313 313 313 313 313 313 313 314 314 314 314 314 315 314 314 313 313 315 315 315 315 315 316 316 317 319 319 321 320 320 320 320 321 320 319 319 319 321 320 318 317 318 318 318 319 318 318 318 318 317 317 317 317 318 318 318 318 317 317 318 317 317
310 310 310 310 310 310 310 310 310 311 311 311 311 311 311 311 311 311 311 312 312 312 312 312 312 312 312 312 313 313 313 314 314 315 315 314 314 314 314 314 314 314 313 314 315 316 316 316 317 317 318 320 320 321 322 321 320 320 321 320 320 320 320 321 320 318 317 317 317 318 317 318 318 317 318 317 317 318 317 318 318 318 319 318 318 318 318 317
310 310 310 310 310 310 310 310 311 311 311 311 311 311 311 311 311 311 311 312 312 312 312 312 312 312 312 313 313 313 313 314 315 316 315 314 315 315 314 314 314 314 314 314 315 316 316 316 317 317 318 320 320 321 321 322 320 320 320 320 320 320 320 321 320 319 318 317 318 318 317 318 318 318 318 317 317 317 317 318 318 318 318 319 319 319 318 318
310 310 310 310 310 310 310 310 310 311 311 311 311 311 311 311 311 312 312 312 312 312 312 312 313 312 313 313 313 313 313 316 317 316 314 314 315 315 315 314 314 315 314 314 315 315 315 316 316 317 318 319 319 320 320 321 321 320 321 319 319 319 319 320 319 318 319 318 318 317 317 317 318 318 317 317 317 316 317 318 318 318 318 318 318 318 318 318
309 309 310 310 310 310 310 310 310 311 311 311 311 312 312 312 312 313 313 313 313 313 314 314 314 314 314 314 314 314 313 316 317 315 314 315 315 315 315 314 314 315 314 314 314 314 314 315 316 316 318 318 318 320 319 320 321 320 320 319 318 318 318 319 319 318 318 318 317 317 317 317 318 318 317 318 316 317 317 317 317 317 317 317 317 317 318 318
310 310 310 311 311 311 311 311 312 312 312 312 312 312 312 313 313 313 313 314 314 314 314 314 314 314 314 314 313 313 314 316 316 315 315 315 315 315 315 315 315 315 314 314 314 314 315 315 316 317 318 317 317 318 318 319 321 319 318 318 318 318 319 319 319 318 318 318 317 317 317 317 318 318 317 318 317 318 318 317 317 317 317 317 317 317 317 318
311 311 312 312 312 312 312 312 312 312 312 313 313 313 313 314 314 314 314 314 314 314 314 314 314 314 314 314 314 313 314 316 316 315 315 315 315 315 315 314 314 315 315 314 314 315 315 316 316 317 317 317 317 317 317 319 320 318 316 317 317 318 319 319 318 318 318 318 317 317 317 317 317 317 317 317 318 318 318 318 317 317 317 317 317 317 317 317
312 312 312 312 312 312 312 312 313 314 314 315 316 316 317 317 317 318 318 318 318 318 318 318 317 317 317 317 316 316 316 316 315 315 314 314 315 314 314 314 314 315 315 314 315 315 316 316 316 316 316 317 317 317 317 317 318 318 317 317 317 318 318 318 317 317 318 318 317 317 317 317 317 317 317 317 317 317 317 317 317 317 317 317 317 317 317 316
314 314 314 314 314 314 315 316 316 317 318 318 319 319 319 319 319 319 319 319 319 319 318 318 318 318 318 317 317 318 318 317 315 315 315 315 315 315 315 314 315 315 315 315 316 316 316 316 316 317 316 316 316 317 317 316 316 317 317 318 318 317 318 317 317 317 317 317 316 317 316 316 317 316 316 317 317 317 317 317 317 317 317 316 317 317 316 316
317 317 317 317 317 317 317 318 318 318 318 318 318 317 317 316 316 316 316 315 315 315 315 315 315 315 315 315 316 318 320 318 316 315 315 315 315 315 315 315 315 315 316 316 315 316 316 316 317 317 316 316 316 316 316 316 316 316 317 316 316 316 316 315 316 316 316 316 316 316 315 316 316 315 316 316 317 317 316 316 316 316 316 316 316 316 316 315
317 317 317 317 317 317 317 317 317 316 316 315 314 314 314 314 314 314 315 315 315 315 315 315 315 315 314 313 315 318 319 318 318 317 316 316 315 315 315 315 315 315 316 316 315 315 316 316 316 316 315 315 316 316 316 316 315 315 315 314 315 315 315 316 316 316 316 316 316 315 315 315 315 315 315 316 316 316 316 316 316 315 315 316 316 316 316 316
316 316 316 316 316 316 315 315 314 314 314 314 314 315 315 316 316 316 317 317 317 317 318 318 318 317 316 314 315 317 317 317 317 316 316 316 316 315 314 314 315 315 316 316 316 315 315 315 315 315 315 315 315 315 315 314 314 314 314 313 314 315 315 316 316 317 317 316 314 314 314 314 315 315 316 317 316 316 316 316 316 315 315 315 315 315 316 316
315 315 315 315 315 315 314 314 314 315 316 316 317 318 318 319 319 319 319 320 320 320 320 320 320 319 317 316 316 316 316 316 315 315 316 316 316 316 314 314 314 315 315 316 316 315 314 314 314 315 315 315 315 315 314 314 314 313 314 314 314 315 315 317 318 316 316 315 313 313 313 314 316 317 317 317 317 317 316 316 316 316 316 316 315 316 315 316
315 315 315 315 314 314 314 315 316 318 319 320 321 321 321 321 321 322 321 322 322 321 321 321 321 319 316 317 318 317 317 316 315 315 315 315 315 315 314 313 313 313 314 314 314 314 314 314 314 315 315 314 315 314 313 314 314 314 314 314 314 314 315 318 318 315 314 314 313 313 313 314 316 317 318 317 316 316 315 315 315 315 316 316 315 315 316 315
315 314 314 314 314 315 316 318 320 321 322 323 323 323 323 322 323 323 322 322 322 322 322 321 320 318 316 317 318 318 318 317 316 316 315 315 314 314 314 313 313 313 312 313 313 313 313 313 314 315 315 314 314 313 314 314 314 314 315 314 316 316 316 318 318 316 315 314 313 313 313 315 317 317 318 317 316 316 315 316 316 316 316 316 316 316 316 315
314 314 314 314 315 318 320 321 322 324 324 324 324 323 323 322 322 322 322 322 321 321 321 320 319 317 317 318 318 318 317 316 316 316 316 315 314 314 314 313 313 312 312 312 312 313 313 313 313 314 314 314 313 313 314 314 315 316 315 315 316 316 316 318 318 318 317 314 313 313 314 315 316 317 317 317 316 316 316 316 316 316 316 316 316 316 316 316
314 314 315 316 318 321 322 324 324 324 324 323 323 322 321 321 321 321 321 320 320 320 319 318 317 315 316 318 318 317 316 316 316 315 315 314 314 314 313 313 313 312 312 312 312 313 312 313 313 313 314 314 314 314 315 315 316 316 317 317 317 317 317 317 317 318 317 314 314 314 313 314 315 316 316 316 316 316 316 316 316 316 317 316 316 316 316 316
316 317 318 320 321 323 324 325 325 324 322 321 320 321 321 320 320 320 320 320 319 318 317 316 315 316 318 318 317 317 316 315 315 315 315 315 314 314 313 313 313 313 313 313 313 313 312 313 314 313 314 314 314 315 315 316 316 317 317 317 317 318 317 317 318 318 317 315 315 315 314 315 315 316 316 316 316 316 316 316 316 316 316 316 316 317 317 316
319 320 321 322 323 324 325 325 324 321 320 320 320 320 321 321 320 320 320 318 318 319 320 317 316 319 321 319 318 318 317 317 316 316 317 316 316 315 314 313 313 313 314 314 314 314 313 314 314 314 315 316 316 315 316 317 317 317 317 317 317 317 317 317 318 318 318 317 316 316 316 316 316 316 316 317 316 317 317 316 317 316 316 316 317 317 317 317
321 322 322 323 324 324 325 325 323 320 319 320 320 321 321 322 322 321 319 317 318 320 321 320 319 320 321 320 320 320 319 318 317 317 317 316 315 314 313 314 314 314 315 316 316 315 314 315 316 316 317 318 318 318 317 317 317 317 318 317 316 316 317 317 317 318 318 317 316 316 316 315 315 315 316 317 316 316 317 317 317 317 317 317 317 318 317 316
322 322 323 323 324 324 325 325 322 319 319 320 320 321 322 321 321 321 319 319 320 320 321 321 321 321 321 320 320 319 318 318 317 315 315 315 314 314 314 314 315 315 316 317 316 314 314 316 317 317 317 318 318 318 317 317 317 317 317 316 316 316 317 317 317 318 317 316 315 315 315 315 315 315 315 316 316 316 317 317 317 318 318 318 318 317 316 315
322 322 323 322 322 323 323 323 321 319 319 320 320 321 321 320 319 319 317 318 320 320 320 321 320 320 320 319 319 319 317 317 317 316 315 314 314 315 315 315 315 316 316 316 316 315 315 316 317 317 318 317 318 318 316 316 316 315 316 316 316 317 317 318 318 317 315 314 314 315 315 315 315 315 316 316 316 317 317 317 318 318 319 318 317 316 315 315
322 323 322 320 319 320 320 321 320 319 319 320 321 321 321 320 319 317 316 316 318 320 320 319 319 318 318 318 317 317 317 317 318 317 315 314 314 315 316 315 315 317 317 316 316 318 318 318 317 318 318 317 317 317 316 315 315 315 316 316 317 317 318 318 318 316 314 314 315 315 314 315 316 316 317 318 317 317 317 318 318 319 319 317 316 315 314 314
322 323 321 318 318 319 319 320 320 320 319 320 321 321 321 320 318 316 315 316 318 319 319 318 317 316 316 316 315 315 316 317 318 317 315 315 315 315 316 316 316 317 317 316 317 318 319 319 318 317 317 317 317 317 316 315 316 317 317 317 317 318 318 317 317 316 315 316 315 314 315 317 318 319 318 318 317 317 318 319 319 318 317 316 315 314 313 312
322 323 321 317 318 320 320 320 320 320 320 320 321 321 321 319 317 315 314 317 320 319 317 316 315 315 314 313 313 314 315 316 316 315 314 315 315 315 315 316 316 317 317 317 317 317 318 318 317 316 316 316 316 316 316 316 316 317 318 318 317 317 317 317 316 316 316 316 315 314 317 318 318 318 319 318 318 318 319 320 319 317 316 315 314 313 312 311
322 324 322 319 319 320 320 321 321 321 320 321 321 321 321 319 317 314 314 318 321 320 318 316 315 314 312 312 312 313 315 315 314 313 313 314 314 314 315 315 315 316 316 316 317 317 317 315 315 316 316 316 316 316 316 317 316 317 318 317 317 317 316 316 316 316 315 316 315 314 316 318 318 318 320 320 319 319 319 319 316 315 314 313 312 311 311 310
323 324 323 320 319 320 321 322 322 321 321 322 322 321 321 319 316 314 315 321 323 320 317 315 314 313 311 311 311 313 316 315 312 312 312 313 313 312 314 315 315 314 313 315 317 317 316 315 313 314 316 316 316 316 317 316 316 318 316 315 316 316 316 316 316 315 315 315 316 315 316 318 318 319 320 319 318 319 319 316 314 314 313 311 311 310 310 309
323 323 321 320 321 321 320 321 321 321 322 321 321 321 320 318 316 314 317 325 325 319 316 313 312 312 311 311 311 311 312 312 312 312 311 312 313 312 314 315 315 314 313 314 317 317 316 315 315 315 315 316 316 317 318 316 317 318 314 313 314 314 314 315 314 314 315 315 317 317 316 318 319 319 319 318 318 319 316 314 313 313 312 311 310 310 309 308
322 321 320 321 322 321 320 320 320 320 322 321 321 321 319 317 316 314 318 324 323 317 315 313 312 312 311 311 311 311 310 310 312 312 310 312 312 311 312 313 314 314 313 313 316 317 315 314 314 315 316 316 316 315 317 317 316 315 313 313 314 314 314 314 314 314 314 316 318 318 317 319 320 318 318 318 318 318 316 314 313 312 311 311 310 309 308 307
321 321 321 322 321 321 320 320 319 320 321 322 321 320 318 316 316 318 322 323 319 316 314 313 313 313 312 312 313 312 311 311 311 311 311 312 312 311 311 311 311 312 313 313 314 315 314 310 311 314 315 316 314 312 313 315 315 313 313 314 314 315 315 314 314 313 315 318 319 319 318 318 320 319 318 318 317 317 316 314 312 311 311 309 308 307 306 305
321 321 322 321 320 320 319 319 319 319 320 321 320 319 317 317 317 321 324 319 316 317 315 314 314 313 313 315 315 313 312 312 312 312 312 312 312 312 312 312 312 313 314 315 315 315 314 311 311 313 314 314 313 312 311 312 312 312 313 313 315 317 316 315 315 314 317 321 320 318 318 318 320 319 318 317 316 315 316 315 312 310 309 308 306 305 304 303
321 321 321 320 320 319 318 318 318 319 320 320 319 317 317 319 320 322 322 317 317 319 317 316 314 313 314 315 316 315 314 314 313 312 314 314 314 314 314 315 315 316 316 316 317 317 316 315 314 313 312 312 313 314 313 312 311 312 313 313 316 319 319 319 318 317 320 320 317 317 318 318 319 318 318 318 315 313 313 313 311 309 308 307 305 304 303 302
320 320 320 320 319 318 317 318 318 318 319 319 318 317 317 320 322 321 320 319 319 318 317 316 314 314 315 315 317 317 315 316 314 313 315 316 315 316 316 316 317 318 317 317 318 317 317 318 316 314 313 312 313 314 316 315 313 312 313 315 317 318 318 319 320 319 319 319 315 314 317 318 318 317 317 316 313 311 311 311 309 308 307 305 304 303 302 301
320 320 320 319 318 317 316 316 317 317 318 318 317 318 318 320 321 320 320 320 319 316 316 315 314 315 316 316 318 317 316 318 317 315 315 315 316 316 315 316 317 317 316 317 317 317 317 317 316 316 315 313 313 315 317 318 315 314 315 316 316 317 317 317 317 317 318 319 316 314 317 318 317 317 315 312 310 310 309 308 307 306 304 304 303 302 301 300
320 319 319 318 317 316 316 315 316 316 317 318 318 319 319 320 319 318 319 318 318 318 316 315 316 317 316 316 317 317 315 316 317 316 316 316 316 315 315 315 316 316 316 316 316 315 316 317 317 315 313 313 314 315 316 316 316 315 314 315 316 317 317 317 318 319 319 320 318 316 317 317 317 317 314 310 309 308 307 306 305 304 303 303 302 301 300 299
318 318 317 317 316 316 315 314 314 315 317 318 318 319 319 318 318 318 318 317 317 318 317 316 317 317 316 316 316 317 316 315 315 315 315 316 316 316 316 316 316 315 315 316 315 314 315 316 317 314 312 312 313 314 314 315 315 314 313 315 315 315 316 317 318 319 318 318 318 317 317 316 315 316 313 309 308 307 306 306 305 304 303 302 301 300 299 298
316 315 315 315 315 316 314 313 313 314 316 317 317 318 318 317 317 317 317 316 315 316 316 316 317 316 316 315 315 316 316 314 314 314 314 315 315 315 316 317 316 315 315 315 315 316 315 316 316 316 316 312 309 311 313 313 314 314 314 315 314 314 315 315 316 317 317 317 316 316 316 315 314 315 312 310 308 307 305 305 305 304 303 302 301 300 299 298
312 311 312 314 315 313 311 311 311 312 315 317 316 317 317 316 317 316 316 315 314 315 315 315 316 315 315 315 314 315 315 314 314 315 314 313 313 314 315 315 314 313 314 314 314 315 315 315 315 315 316 313 309 310 313 312 312 314 313 313 313 315 315 314 316 316 316 316 316 315 315 314 314 315 314 311 309 306 305 304 303 303 303 302 301 299 298 298
309 307 308 311 311 310 308 307 309 312 314 315 315 315 315 315 316 315 315 315 315 315 314 315 315 314 315 314 313 314 315 314 313 313 313 313 313 314 313 314 314 312 312 313 313 314 314 314 316 315 314 313 311 312 313 313 312 311 311 311 313 314 314 315 316 315 316 316 316 316 316 315 315 314 313 311 308 307 306 304 303 302 302 301 300 299 298 297
306 305 306 308 308 307 306 306 308 312 313 313 313 314 314 314 315 315 314 314 314 314 314 314 314 313 313 313 313 313 313 314 313 312 313 312 313 313 313 314 315 313 312 312 312 313 312 313 314 314 313 313 313 313 313 314 313 312 311 312 313 313 313 314 314 313 314 314 316 316 316 316 314 311 309 309 307 306 306 304 303 302 301 299 298 297 296 296
303 304 306 307 307 306 306 306 309 312 312 312 312 313 313 314 314 314 314 313 313 314 314 314 313 313 313 313 312 312 313 314 313 313 313 312 312 313 312 311 314 314 312 312 313 312 312 313 313 313 312 312 313 314 313 313 314 313 313 313 313 313 313 314 314 314 313 314 315 316 316 316 312 307 307 307 305 305 305 304 303 301 300 298 297 296 295 294
302 304 306 307 307 306 306 307 309 311 312 312 311 312 313 313 313 313 313 313 313 314 314 313 314 314 314 314 313 313 315 315 315 315 315 313 312 312 310 308 311 313 312 313 314 311 310 312 313 314 313 313 313 313 313 314 313 313 313 313 313 313 313 314 314 314 314 314 315 314 316 316 310 304 305 304 302 303 303 302 302 300 299 298 296 295 294 293
302 305 306 306 307 307 307 308 309 309 310 311 311 312 313 313 312 313 313 313 313 314 314 314 314 314 314 314 314 314 315 315 315 315 314 314 313 310 307 308 309 310 311 313 313 311 309 311 313 313 313 312 313 313 313 312 312 312 313 312 312 312 312 312 312 312 313 313 313 313 315 315 310 303 302 302 300 300 301 300 300 299 298 297 296 295 294 293
303 305 306 306 306 307 308 308 309 309 309 309 310 311 312 313 313 312 312 312 313 313 313 314 314 313 313 314 314 314 313 313 313 313 313 314 312 307 306 309 309 309 311 311 312 312 310 311 312 313 313 313 313 313 312 312 311 311 312 311 310 310 310 312 312 311 312 313 313 313 313 314 311 304 303 302 300 300 300 299 299 299 298 297 296 296 295 294
302 302 304 306 307 307 308 309 308 309 309 309 310 310 310 311 313 313 312 312 312 312 312 313 312 312 313 313 313 313 313 312 312 312 312 313 311 307 306 308 308 309 310 309 310 310 309 310 311 311 313 313 312 312 312 311 310 310 310 310 309 309 310 312 312 311 312 312 313 312 311 312 311 307 306 305 303 301 300 299 299 299 298 297 297 297 295 294
300 300 303 305 306 307 307 308 308 308 308 309 309 309 309 310 311 312 312 311 312 312 312 312 312 311 312 312 312 312 312 312 311 311 311 311 311 308 305 306 307 307 306 306 307 308 307 308 309 309 310 310 310 310 310 310 309 309 309 309 308 309 309 309 309 309 310 309 309 309 309 309 309 307 307 307 305 302 300 299 299 298 298 297 297 296 296 295
299 299 303 305 305 306 306 307 307 308 308 308 308 309 309 309 309 310 311 311 311 311 311 311 311 311 311 311 311 310 310 310 310 311 310 310 310 307 304 305 305 304 304 304 306 306 306 307 307 308 308 308 308 308 308 307 307 307 307 306 306 306 307 308 308 307 307 306 306 306 306 307 306 305 305 305 304 301 299 299 298 297 296 296 296 296 296 295
298 299 301 303 305 306 306 307 307 307 308 308 308 308 308 308 307 308 309 310 310 310 310 309 309 310 310 309 310 310 309 309 309 310 310 310 309 307 305 305 303 302 304 304 304 305 305 305 306 306 306 306 306 305 305 305 305 305 305 304 304 304 305 306 306 305 305 305 305 305 304 305 304 304 304 303 301 299 298 297 297 296 296 295 295 295 295 295
298 297 298 300 303 304 305 305 306 307 307 307 307 307 307 307 307 307 309 309 309 309 309 309 308 309 309 309 309 309 309 309 309 309 308 307 307 306 306 305 303 302 303 303 303 304 304 304 305 305 304 304 304 304 304 304 303 303 303 303 303 303 303 304 303 303 303 303 303 303 303 303 303 303 302 300 298 297 297 296 296 295 295 294 293 293 294 294
298 297 298 299 300 301 302 303 304 305 306 306 307 307 306 306 305 306 307 307 307 308 308 308 308 307 307 308 308 308 308 307 306 306 306 305 305 305 305 304 303 301 301 301 302 302 303 303 304 303 302 303 303 302 302 302 302 301 301 301 301 301 301 301 301 301 301 301 301 302 302 302 301 301 299 297 296 296 296 295 295 294 294 293 293 293 292 293
296 297 298 299 300 300 300 301 303 304 304 305 306 306 306 305 305 305 305 304 304 306 305 305 306 304 303 305 306 306 305 304 303 304 303 303 304 303 303 303 302 301 300 301 301 301 302 302 302 302 301 301 302 301 300 300 300 299 299 299 299 299 300 300 300 300 300 300 300 300 301 301 300 298 297 296 295 295 295 295 294 294 293 293 292 292 292 292
295 295 296 297 299 300 300 300 301 303 303 304 305 305 305 304 303 305 305 301 300 301 301 302 303 303 303 304 304 303 302 302 301 301 301 300 301 301 301 301 301 301 301 301 300 300 301 300 300 300 300 300 300 300 298 298 298 298 299 299 299 299 299 299 299 299 299 299 299 299 299 299 297 295 294 294 294 294 294 294 293 293 293 292 292 292 292 292
Wind_Speed
1 1 1 1 1 1 1 1 1 2 2 2 2 3 3 3 3 4 4 5 5 6 7 8 9 10 10 11 12 13 15 17 18 20 22 18 11 7 4 4 5 4 5 6 8 8 6 6 7 6 5 6 6 6 7 6 5 5 4 5 5 6 6 4 4 7 8 8 9 7 6 7 10 9 6 7 11 14 17 20 21 18 22 27 25 23 22 20
3 3 3 3 3 3 3 4 4 4 4 4 5 5 5 5 6 6 6 7 8 8 9 10 11 12 12 13 13 15 16 17 20 22 21 11 4 3 2 4 4 4 4 6 7 7 6 7 8 7 6 7 7 6 7 6 7 7 5 6 7 7 8 6 6 10 10 10 12 13 14 11 11 13 9 8 12 13 15 19 20 20 21 23 23 22 19 14
4 4 4 5 5 5 5 5 6 6 6 6 7 7 7 7 8 8 8 9 9 10 11 11 12 13 14 14 15 15 16 20 21 17 8 5 7 1 7 6 4 5 4 5 6 7 7 7 8 8 8 8 7 6 6 6 7 8 7 6 7 8 11 9 9 11 13 13 14 14 15 14 14 15 11 10 14 13 14 17 18 20 18 16 16 17 18 18
5 6 6 6 6 6 7 7 7 7 8 8 8 9 9 9 9 9 10 11 11 12 12 13 13 14 15 15 16 15 17 19 13 6 3 7 3 7 12 11 5 4 3 5 6 9 9 7 8 8 8 9 8 6 7 8 6 5 7 8 9 10 11 10 11 13 12 11 13 16 15 16 16 13 11 11 12 10 14 18 18 21 20 18 17 16 17 20
7 7 7 7 7 7 8 8 8 9 9 9 10 10 10 10 11 11 12 12 13 14 14 15 15 16 17 17 17 15 14 11 2 2 3 4 7 12 16 13 6 4 3 4 6 8 8 7 7 8 9 10 8 7 10 12 8 5 9 13 15 15 13 11 13 10 8 9 12 15 14 15 15 12 13 14 13 11 16 20 22 26 26 23 22 20 17 20
8 8 8 9 9 9 9 9 10 10 11 11 12 12 12 13 13 14 14 15 15 16 16 17 17 17 18 18 18 14 8 6 5 5 7 10 15 16 16 14 7 6 4 4 6 7 8 8 8 9 9 10 9 9 10 10 9 7 11 15 17 16 14 14 13 8 8 11 14 15 15 17 17 16 19 18 18 21 23 25 28 30 29 27 23 21 19 21
10 10 10 10 11 11 11 11 11 12 12 13 13 14 14 15 15 16 16 17 17 17 18 18 19 18 19 18 18 14 9 13 17 16 16 18 17 16 14 11 8 8 8 7 7 8 9 9 11 11 10 9 10 12 11 8 9 9 12 14 17 17 16 16 15 11 10 14 17 16 17 18 18 18 22 22 23 25 27 30 32 31 29 26 23 20 20 22
11 11 11 12 12 12 12 12 12 13 14 14 15 15 16 16 16 17 17 18 18 18 18 18 19 18 18 18 16 12 11 18 21 18 16 15 13 12 10 9 9 11 10 9 9 9 9 10 12 10 9 10 10 10 7 7 10 12 13 15 16 16 15 15 16 14 13 15 16 15 17 21 21 20 25 28 28 27 28 30 30 28 26 22 21 21 20 22
12 12 12 12 12 13 13 13 13 14 15 15 16 16 17 17 17 17 17 18 17 17 17 17 18 17 17 17 13 10 13 16 15 12 10 9 9 10 10 10 10 12 12 11 10 10 10 10 12 10 9 12 10 9 7 7 8 8 11 14 14 14 16 16 18 18 16 16 14 12 16 22 22 18 22 27 24 21 22 23 23 23 23 21 19 19 20 22
13 13 13 13 13 13 13 14 14 15 15 16 16 16 17 17 16 16 16 16 16 16 16 15 16 16 16 16 11 8 11 13 11 9 8 10 11 11 13 12 12 13 13 13 13 12 11 10 10 9 11 12 11 10 10 9 6 6 9 13 15 18 20 21 22 21 19 19 16 13 14 20 19 11 14 20 15 13 14 15 17 19 22 22 20 19 20 23
13 13 13 13 13 13 13 13 14 14 15 15 15 15 15 15 15 15 14 15 15 15 14 14 15 15 16 15 11 11 12 12 12 12 13 14 15 15 15 14 13 13 12 13 14 13 11 11 11 10 8 6 7 9 11 9 8 10 10 13 18 20 22 22 22 23 19 13 12 13 13 18 17 11 17 25 21 17 17 17 17 18 22 23 22 22 20 25
13 13 13 13 13 13 12 12 12 12 13 13 14 14 14 14 14 14 14 14 14 14 14 14 14 14 15 15 17 19 19 18 17 17 17 17 18 18 17 15 14 14 13 12 12 12 13 13 12 12 8 5 7 7 5 5 7 9 9 11 16 16 17 21 20 18 15 6 4 6 9 12 13 14 23 27 21 17 15 17 19 20 22 22 22 22 22 24
13 13 13 12 12 12 11 11 11 11 12 12 13 14 14 15 14 15 14 14 14 13 13 13 14 15 14 14 19 21 20 19 17 16 16 17 18 19 18 16 14 14 14 13 13 14 14 14 12 13 12 10 9 7 5 5 4 8 10 8 11 12 11 16 12 6 6 6 9 5 6 8 9 15 20 17 12 12 13 17 23 25 25 23 22 23 24 26
13 13 12 12 11 11 10 10 9 10 11 12 13 14 14 14 14 15 14 14 14 13 13 13 13 14 12 14 20 22 20 19 17 16 15 16 18 19 18 16 15 15 15 16 17 16 15 14 12 12 13 12 10 9 9 8 6 8 10 6 7 8 6 9 5 7 4 6 11 8 7 8 10 13 16 11 6 8 13 20 27 28 26 24 23 24 26 28
13 12 12 11 10 10 9 9 9 9 11 12 12 13 14 14 14 14 14 14 14 13 13 13 13 11 10 15 20 21 19 15 13 12 11 14 17 16 16 16 15 15 15 16 17 16 14 13 11 10 10 10 10 9 9 8 6 7 8 6 6 7 7 8 5 8 6 4 12 10 6 8 9 10 13 12 11 13 17 24 28 28 27 26 25 24 26 26
12 12 11 10 9 9 9 9 9 9 10 12 12 13 13 13 13 13 14 13 13 13 12 11 12 9 7 12 17 17 16 12 10 10 10 12 13 13 14 13 11 12 13 14 15 13 11 10 9 9 8 7 7 8 7 6 6 7 8 8 8 9 9 7 6 8 7 3 11 12 8 9 9 11 16 19 22 23 22 26 30 31 28 26 25 23 21 21
11 11 10 10 9 9 9 9 9 9 10 11 11 11 12 12 13 12 12 12 12 10 9 9 8 8 10 14 16 14 12 11 9 7 8 8 9 10 11 9 8 9 9 9 10 9 8 9 7 7 8 7 7 6 6 7 6 6 7 8 9 11 10 8 7 7 3 5 9 12 11 12 12 14 19 23 25 23 22 26 30 29 27 25 25 21 18 17
11 11 10 9 9 8 9 9 9 9 9 10 11 10 12 13 12 12 12 11 9 7 6 6 5 4 8 13 13 9 9 10 9 9 11 10 9 9 8 8 6 6 6 5 7 8 8 8 6 5 6 8 8 6 7 8 8 9 9 9 10 11 11 12 10 7 5 8 12 12 13 15 15 14 18 23 23 22 24 27 26 26 27 27 25 20 16 11
10 10 10 9 9 9 9 9 9 10 9 10 10 11 12 11 11 12 10 8 6 5 4 4 7 5 8 10 11 13 17 17 16 17 17 15 12 8 7 6 6 7 7 4 7 10 8 6 5 5 7 8 9 10 11 13 14 16 14 11 12 13 13 14 14 12 13 15 14 14 16 16 15 15 16 21 25 26 27 25 23 23 26 28 23 14 7 4
10 10 10 9 9 9 10 9 9 10 10 10 10 11 9 7 8 6 4 7 10 11 12 11 13 15 18 18 17 18 20 19 17 16 14 11 7 5 6 6 7 7 7 5 5 7 7 7 6 7 10 12 13 13 15 16 16 17 15 12 14 14 13 13 15 14 13 13 11 12 16 16 16 16 16 23 27 23 22 21 21 23 26 23 13 3 6 5
10 10 10 9 10 10 10 10 9 11 11 10 9 7 5 4 5 4 6 11 14 15 20 22 21 21 22 21 21 20 15 13 12 11 10 5 5 6 7 9 6 6 7 5 3 4 4 7 8 10 14 15 15 13 13 13 14 15 13 12 13 12 12 14 16 14 11 8 8 11 14 15 16 17 20 24 21 17 17 17 19 24 21 9 4 7 6 6
11 10 9 10 10 10 11 10 10 10 10 9 7 4 3 4 4 6 8 10 15 19 22 24 23 25 26 24 26 26 16 11 11 9 7 5 8 7 7 8 6 5 6 6 3 2 6 9 11 15 15 14 15 12 11 12 14 13 10 11 10 9 12 13 12 8 3 2 8 13 14 14 16 20 22 19 14 15 16 19 24 21 9 5 8 7 7 9
11 10 8 8 8 9 9 9 9 9 8 7 5 3 4 5 6 8 8 7 13 18 20 21 20 20 20 18 21 23 17 15 14 10 7 7 9 8 7 7 8 7 6 8 8 7 6 7 9 15 15 13 14 12 10 12 11 10 9 9 9 10 11 10 5 2 2 5 11 13 13 12 14 17 15 9 8 11 15 23 24 10 4 6 8 10 12 14
10 9 7 6 7 8 8 8 8 8 7 5 4 4 5 6 8 10 8 7 9 11 15 18 14 11 10 9 10 12 12 12 10 9 10 10 8 8 9 9 9 9 9 11 12 11 12 10 3 6 10 11 13 11 11 10 8 9 9 9 11 12 13 12 10 9 10 10 8 9 11 8 5 6 5 4 5 7 16 23 10 6 8 9 14 17 18 18
10 9 7 7 8 8 7 7 7 7 6 6 5 4 6 7 9 10 6 6 6 6 10 8 4 5 5 4 4 4 7 7 7 9 12 13 10 6 5 7 8 8 10 12 12 11 13 9 0 3 7 8 9 10 11 10 7 9 9 10 12 13 13 14 14 11 9 6 1 5 9 5 0 2 5 5 4 9 18 13 6 14 12 15 18 18 20 20
12 11 10 9 9 7 7 6 5 6 6 6 5 5 7 7 9 9 5 5 5 3 4 3 2 3 2 1 3 5 5 5 7 10 11 14 13 7 2 4 5 6 4 5 7 6 6 2 2 3 7 7 8 10 12 10 8 7 4 4 7 9 11 11 10 8 6 6 2 2 5 6 4 7 11 8 8 14 12 4 14 15 15 18 19 17 18 19
17 15 13 11 8 7 6 5 6 6 6 6 6 6 6 7 8 8 3 5 5 2 5 3 2 3 2 2 5 5 2 3 5 6 9 12 11 7 6 4 4 4 1 0 3 2 4 4 2 3 6 7 7 8 8 8 8 5 2 4 5 7 9 8 7 6 6 9 8 5 7 8 7 7 6 6 11 14 2 13 14 15 18 20 21 19 18 18
16 14 12 10 8 7 6 7 8 8 7 6 7 6 5 7 8 6 3 6 2 4 4 3 3 2 1 3 5 2 1 3 3 3 9 12 9 6 7 7 5 3 5 4 5 1 3 6 5 6 7 6 8 6 3 6 8 2 4 3 4 4 7 6 5 7 6 8 8 5 7 7 8 4 2 7 11 6 9 14 12 15 18 18 20 19 18 19
12 11 11 10 8 7 7 8 9 9 8 7 6 5 6 7 7 3 3 5 0 4 2 3 4 2 3 4 5 3 1 1 0 2 7 10 10 6 4 5 6 5 5 8 8 5 1 2 3 5 6 6 6 2 1 5 6 1 3 1 2 3 6 5 6 7 6 7 9 6 10 6 8 4 4 5 6 2 11 11 11 16 17 17 17 17 18 19
12 11 11 10 8 8 8 9 10 9 8 7 6 5 7 6 4 4 6 4 2 2 2 4 3 3 4 5 5 6 4 2 3 5 7 5 8 7 3 3 3 5 6 8 11 12 5 4 2 5 9 5 1 3 2 1 1 1 1 4 5 7 6 5 6 4 4 8 9 7 13 8 6 3 2 2 1 4 7 9 11 15 17 18 16 17 19 20
11 12 11 10 9 9 9 10 10 9 7 7 5 4 5 4 2 6 6 1 2 0 3 3 2 2 4 3 2 4 4 4 5 6 5 3 6 7 3 2 2 3 5 6 8 11 8 4 2 6 9 5 2 2 1 2 1 1 4 4 6 6 4 4 4 3 5 7 4 2 9 9 7 1 2 2 5 8 6 8 11 13 15 17 16 16 17 19
13 13 12 11 11 11 11 10 9 8 6 5 3 1 2 3 5 7 4 1 1 2 1 1 1 1 1 2 1 2 1 2 5 5 3 2 3 4 4 4 2 3 6 6 4 4 6 8 8 5 6 8 6 3 3 3 3 3 4 4 5 5 4 5 4 4 6 4 2 2 3 6 9 6 6 4 6 12 9 9 14 15 15 16 15 15 15 17
15 15 14 14 14 12 11 10 8 7 5 4 3 1 0 4 5 4 5 3 1 1 2 3 2 1 0 2 1 2 1 2 5 5 2 1 3 4 7 8 5 4 7 7 7 5 4 4 9 6 3 9 10 5 4 3 5 7 5 4 5 5 6 7 6 6 8 3 3 2 1 4 8 6 5 1 9 15 14 16 18 18 17 15 14 14 15 17
18 17 17 16 15 13 11 10 9 8 6 4 3 2 3 7 3 1 4 6 1 2 2 3 2 1 3 4 3 1 3 4 2 3 2 3 5 6 8 10 9 6 6 6 6 7 8 5 7 7 2 9 12 9 5 2 3 8 5 4 6 6 7 7 7 7 9 6 2 2 1 3 3 3 8 11 14 16 18 18 18 18 16 14 14 14 15 17
21 20 19 18 16 15 12 10 10 8 7 7 4 3 7 7 3 2 6 6 1 2 1 2 2 3 6 7 5 2 4 4 1 1 4 6 7 7 7 7 8 7 5 5 5 5 9 8 3 4 1 7 10 7 2 3 3 4 1 3 5 5 5 6 7 7 8 8 5 4 4 4 4 2 7 14 15 15 16 16 17 16 14 13 14 13 13 15
23 22 22 21 19 17 14 13 11 9 9 8 5 7 9 5 4 5 3 3 2 2 1 1 1 4 7 7 6 6 5 3 1 1 5 8 8 9 8 5 5 8 6 5 4 4 7 6 4 4 2 4 2 0 1 2 3 2 2 3 2 1 3 6 8 7 7 10 8 6 8 7 8 7 5 14 13 12 12 13 14 13 12 12 12 11 11 13
23 22 22 23 22 20 18 15 12 11 11 8 7 8 6 4 8 8 1 1 1 2 1 3 3 5 7 6 5 6 6 2 3 3 5 6 6 7 9 5 3 7 8 5 4 3 5 7 3 4 5 3 3 2 1 2 2 2 3 2 2 1 2 4 7 7 9 12 8 7 12 11 8 5 6 12 10 10 9 9 11 10 10 11 10 10 9 9
21 21 22 24 24 23 19 15 13 13 10 7 10 11 5 4 9 8 4 3 1 2 5 7 5 4 8 9 9 5 7 5 5 5 5 5 4 3 6 4 2 2 4 2 2 1 2 7 6 2 2 2 3 1 3 3 3 3 3 3 2 3 4 5 5 5 9 11 8 9 13 11 9 7 2 9 9 10 8 7 8 8 8 9 8 8 8 8
20 17 18 22 23 21 17 16 17 16 10 8 11 10 6 7 10 9 7 5 3 4 7 10 8 8 10 11 12 7 7 7 7 6 6 6 5 4 4 1 2 3 1 2 3 2 1 5 6 1 3 2 3 3 5 5 3 1 3 2 3 3 5 6 5 5 8 9 8 9 10 9 7 4 3 9 9 8 7 6 6 5 6 6 5 6 6 7
15 9 11 17 18 16 14 17 19 16 10 9 10 8 6 6 8 10 11 9 6 7 9 10 10 11 11 12 13 9 7 9 9 8 7 7 7 3 4 3 1 2 2 1 2 3 2 5 7 3 2 3 4 4 5 7 5 3 4 4 4 3 2 4 6 6 7 9 9 9 9 7 2 4 6 9 8 7 6 6 5 4 5 4 3 4 4 5
10 5 8 15 15 15 18 19 15 11 7 8 10 9 9 6 3 6 12 14 12 9 7 7 9 9 9 10 11 9 7 8 9 8 7 8 10 4 4 5 3 3 1 2 2 1 2 3 6 7 5 7 6 1 4 6 6 4 5 5 7 7 5 6 8 7 6 8 8 8 10 6 1 3 4 7 6 5 6 6 6 5 5 4 2 2 3 3
9 5 7 13 15 18 22 16 9 9 7 9 9 7 7 7 5 5 9 11 11 7 5 5 6 7 7 8 9 7 5 5 7 8 5 6 10 6 3 5 4 4 3 2 1 2 1 1 4 8 8 10 11 5 4 4 5 6 6 5 6 6 5 8 9 6 5 6 4 6 9 3 2 2 4 5 4 4 5 5 6 6 5 4 3 1 2 3
10 7 8 12 16 22 21 9 8 9 8 9 8 6 7 5 4 5 6 8 8 6 5 5 6 8 7 7 7 8 6 5 7 8 7 8 7 1 4 4 4 3 2 2 0 1 1 1 6 8 7 9 12 5 4 3 2 4 3 1 1 2 4 6 6 4 4 5 5 7 7 2 1 0 2 4 5 4 4 5 6 6 6 5 3 1 2 3
10 8 7 11 18 24 16 7 8 10 9 10 9 11 13 9 7 7 7 8 8 6 6 6 7 9 8 5 6 9 8 5 6 8 7 8 3 4 4 3 3 1 0 0 1 1 1 2 4 6 5 5 8 5 2 3 2 1 1 1 1 4 6 5 4 2 4 6 7 7 6 2 1 3 4 5 6 5 5 6 5 5 5 5 3 1 1 2
8 7 7 12 23 26 16 8 6 8 11 13 13 14 14 11 11 11 11 11 11 9 7 5 3 5 6 5 4 6 8 6 6 5 3 3 1 3 2 4 4 1 1 2 2 0 2 3 2 4 5 5 6 5 3 0 1 1 2 4 5 8 10 8 4 5 6 5 5 6 6 4 2 4 6 7 7 6 5 5 5 3 3 3 2 2 1 1
6 6 6 10 20 24 18 11 7 7 10 12 11 13 15 13 11 10 11 13 15 14 11 8 3 3 6 8 6 7 10 9 7 5 4 4 2 2 2 3 5 4 3 3 2 1 1 3 5 8 8 7 7 8 7 5 6 7 8 9 10 11 11 9 8 9 8 6 7 9 10 10 10 11 13 12 5 6 6 4 4 3 2 1 2 2 3 3
5 4 5 7 9 14 14 12 11 9 9 10 8 9 14 15 12 9 10 10 12 12 11 10 9 8 8 9 9 9 11 12 11 10 10 9 4 2 3 3 4 4 4 3 2 2 2 5 9 11 11 11 12 13 13 13 12 12 13 15 15 14 13 11 11 11 10 10 10 10 12 15 13 14 18 16 5 4 4 1 1 1 1 2 3 4 5 6
5 3 4 6 6 7 9 11 13 12 11 10 7 8 13 14 12 10 9 8 8 9 8 7 10 13 12 11 9 8 10 12 11 10 9 7 3 2 3 3 3 2 3 3 2 2 3 7 10 10 10 13 15 16 16 15 14 13 15 17 17 17 17 15 14 14 13 13 12 13 18 20 16 17 19 11 2 3 2 1 1 2 3 3 5 6 7 8
6 5 4 4 4 4 3 5 11 14 14 10 7 9 13 13 13 9 3 3 7 8 8 9 10 11 12 12 10 7 8 8 5 3 2 1 1 2 2 0 1 2 3 2 3 2 3 6 8 8 8 11 14 15 14 13 13 14 16 18 19 21 22 19 17 17 17 18 19 20 24 24 19 15 10 2 5 3 1 1 1 2 4 6 7 7 8 9
6 5 3 3 4 2 1 2 8 11 10 9 9 10 11 13 15 11 2 2 7 7 6 9 9 5 4 6 7 7 4 1 1 1 3 2 0 1 1 1 1 3 2 2 2 3 4 6 5 5 6 9 13 14 14 13 14 15 17 19 21 23 22 19 17 17 17 18 20 22 23 20 11 2 3 5 4 2 2 3 4 4 5 8 9 9 10 10
8 6 3 2 4 4 3 3 7 7 6 8 9 9 11 14 15 10 2 1 4 4 1 2 3 3 2 2 5 5 1 4 2 2 3 1 3 1 1 1 2 2 2 2 2 3 5 6 6 6 8 10 11 12 13 12 12 14 18 23 24 22 18 16 15 15 15 17 18 18 17 10 1 5 4 3 3 4 5 6 6 5 7 9 10 11 11 11
9 8 5 3 3 5 6 4 7 8 6 8 10 10 9 7 5 5 4 2 2 1 1 3 3 1 2 4 3 1 4 6 4 3 3 0 2 3 4 5 4 5 6 4 4 5 6 7 7 8 8 10 11 11 7 4 7 12 13 15 18 17 14 14 15 16 17 17 14 11 7 2 4 5 3 3 4 5 7 8 8 8 8 9 11 11 12 13
Wind_Direction
303 304 303 311 308 305 302 294 290 286 276 274 269 266 272 268 272 278 280 286 290 295 299 302 305 308 311 315 316 319 321 320 318 311 305 305 289 260 265 304 315 304 269 251 241 234 239 230 222 223 210 217 226 229 232 230 215 213 238 249 256 262 276 291 275 301 306 302 307 302 294 287 291 287 264 266 262 264 272 273 271 261 258 268 272 275 282 286
286 286 286 285 285 289 292 292 294 294 292 292 289 287 286 284 286 286 288 291 292 296 298 301 303 306 309 311 313 315 317 318 313 307 305 298 218 175 351 323 309 301 271 249 237 221 219 216 215 217 211 226 231 227 240 228 210 225 250 261 256 262 282 294 287 296 298 295 300 300 299 292 285 288 287 279 276 278 281 276 276 271 263 266 268 275 282 279
276 278 277 276 278 280 283 285 287 289 289 291 291 291 291 291 291 292 293 293 295 297 297 299 300 303 305 307 310 311 316 318 309 303 298 170 151 44 346 338 294 285 267 237 222 208 220 222 212 215 224 240 233 218 241 216 210 235 241 259 260 266 280 279 281 288 288 292 295 294 298 293 282 283 278 269 277 280 276 275 278 279 278 279 276 277 279 276
268 268 269 271 273 275 277 279 281 283 284 286 287 288 289 290 291 292 293 293 294 294 295 296 296 298 300 303 305 310 319 315 300 284 194 167 173 318 322 325 294 263 251 224 214 215 226 224 213 221 235 251 235 218 241 215 204 236 224 250 270 281 286 277 285 287 281 288 291 292 295 288 284 282 266 262 277 272 261 269 278 281 288 294 292 292 283 276
266 266 267 268 270 271 273 274 277 279 280 281 282 283 283 284 285 286 287 288 289 289 291 291 292 294 295 298 300 309 321 317 303 127 182 214 291 301 303 309 291 247 246 219 223 227 226 215 213 223 234 255 243 224 245 225 214 252 239 250 267 277 280 280 291 284 271 285 286 285 285 285 290 281 263 261 263 261 264 273 280 283 290 292 291 293 283 270
271 271 272 273 273 273 274 275 276 276 277 278 279 279 280 281 281 282 283 284 285 285 286 287 289 290 291 294 296 302 305 290 298 291 272 283 293 292 290 294 278 247 241 221 228 225 216 208 211 225 234 253 252 242 257 230 205 252 259 256 265 271 273 281 291 276 261 276 276 277 282 288 289 280 276 268 259 264 269 272 277 282 286 289 289 286 275 267
277 278 278 279 279 279 280 280 280 280 280 280 281 281 282 283 283 284 285 285 285 285 286 287 288 288 290 291 293 295 263 260 282 284 285 290 286 285 283 280 260 235 232 228 226 216 212 211 218 238 249 254 261 256 259 240 212 244 268 269 271 274 274 279 285 276 262 264 266 275 282 282 278 283 286 276 269 272 273 273 277 283 286 287 285 279 270 267
279 279 280 282 282 283 284 285 286 286 286 286 287 288 288 289 289 289 289 288 288 288 288 288 288 288 290 289 293 290 251 259 283 288 287 282 272 273 267 256 239 227 232 230 224 219 217 223 230 243 255 257 268 264 252 245 239 242 256 269 274 274 273 278 280 273 261 259 264 270 271 270 271 282 285 277 275 275 271 273 279 284 285 283 280 276 271 271
278 279 280 282 283 285 287 289 290 291 292 292 292 293 293 292 292 292 291 291 291 291 291 290 290 289 288 287 287 278 259 268 286 288 280 266 257 260 254 254 242 229 232 228 220 222 224 236 245 242 260 275 274 267 250 242 255 256 260 275 284 282 281 281 278 271 262 260 262 259 260 268 276 283 278 273 275 276 270 270 276 284 287 286 282 276 273 277
275 277 278 280 282 284 287 289 291 292 293 293 293 292 292 292 292 292 292 292 291 291 291 289 290 289 287 285 274 265 270 275 280 276 272 266 260 260 259 260 250 236 230 229 224 224 233 251 260 252 266 279 271 263 250 238 271 302 293 291 286 283 283 278 274 270 262 262 259 249 260 274 279 280 270 271 275 278 279 275 274 281 286 289 287 280 277 280
272 273 274 276 278 282 284 287 289 291 291 291 292 291 292 293 293 294 293 293 292 292 291 288 288 284 283 280 257 253 270 272 276 280 277 274 268 264 263 260 253 240 227 235 239 233 237 252 260 255 261 271 269 264 245 243 280 292 298 298 283 280 280 272 269 266 259 260 253 242 259 275 274 253 250 268 280 278 279 283 279 278 281 285 285 282 276 277
270 271 273 275 278 282 285 288 290 290 291 291 292 293 295 296 296 296 295 293 292 291 289 287 285 281 283 275 254 258 270 271 276 280 277 275 271 267 265 259 250 237 229 238 249 243 238 250 252 245 253 275 284 276 246 258 287 284 288 289 283 282 277 271 267 262 253 232 186 219 256 264 257 242 245 261 276 276 272 280 287 286 283 282 280 279 274 271
270 272 275 278 282 286 288 291 292 293 293 293 295 296 297 297 298 297 295 294 292 290 287 284 281 279 277 268 263 269 275 274 275 274 271 270 269 266 262 257 247 241 238 235 240 243 241 250 247 241 256 268 273 280 286 287 272 276 278 268 282 285 276 275 265 231 230 193 156 186 264 270 263 262 266 275 285 279 274 283 293 292 287 282 277 276 273 269
271 273 277 281 284 288 291 292 293 295 294 294 296 296 297 299 298 297 296 296 294 291 287 281 279 276 265 263 273 277 277 277 275 269 267 265 264 266 263 258 252 247 245 240 239 244 248 249 241 245 257 254 265 289 284 268 251 272 279 252 261 274 272 281 243 158 190 181 167 201 262 277 279 279 286 304 310 282 279 286 290 288 285 282 276 273 271 271
270 273 275 277 281 285 287 289 290 291 292 294 296 297 299 300 300 301 300 298 296 293 288 282 277 270 263 269 274 277 279 278 275 272 264 257 260 265 265 262 260 255 248 244 243 243 247 243 230 241 253 243 257 281 274 263 254 261 273 260 247 255 271 281 237 197 238 194 173 202 264 273 270 281 290 301 299 286 285 287 287 284 283 282 278 275 273 275
266 269 270 273 277 279 282 284 286 288 290 292 295 298 299 301 303 302 300 298 296 292 286 279 269 258 260 270 271 276 282 280 278 279 266 257 257 258 265 268 263 256 245 240 241 240 237 226 221 237 247 244 245 255 264 267 261 245 248 261 263 268 280 283 271 262 268 187 183 211 258 279 271 284 290 292 290 288 287 285 283 282 283 283 282 280 279 283
260 263 266 269 271 275 279 281 286 289 290 293 295 298 302 304 304 301 299 297 293 290 279 268 260 252 255 261 267 273 281 284 281 276 271 267 260 256 264 265 256 249 238 231 229 220 212 205 211 234 234 241 248 247 258 257 256 256 250 257 262 268 281 285 291 294 238 184 218 229 244 265 271 281 285 284 285 284 279 274 276 281 285 286 285 285 288 291
256 259 261 263 266 271 276 281 290 292 296 301 302 305 307 307 305 299 294 291 287 280 267 243 221 243 253 250 258 265 272 280 278 275 281 281 275 267 254 246 238 215 195 203 202 186 188 198 206 234 228 231 239 230 238 247 260 280 283 283 281 278 286 287 288 296 262 246 262 263 258 268 278 283 281 281 283 279 272 270 274 281 286 284 284 289 294 298
252 257 260 263 266 271 275 282 291 295 301 306 309 315 314 311 305 293 282 272 256 258 277 219 201 251 285 269 266 270 273 278 279 279 278 276 275 265 240 226 197 185 188 186 184 181 187 197 199 224 230 232 231 222 234 252 267 283 288 288 287 284 281 282 282 285 287 282 279 278 277 283 290 289 284 281 279 275 273 277 282 283 279 278 282 296 316 1
249 255 261 264 269 274 276 282 291 299 305 310 320 325 325 326 309 292 276 261 252 260 277 267 250 263 279 282 279 276 278 280 279 277 273 269 261 223 196 179 173 199 221 216 182 174 192 216 211 218 233 243 246 244 250 260 269 280 285 279 276 278 276 278 278 279 286 285 278 279 282 287 291 290 282 275 272 273 279 285 284 274 269 273 284 358 62 39
246 254 263 267 271 275 277 283 293 303 309 317 333 337 333 339 310 305 317 290 274 271 273 274 270 264 265 270 269 268 277 287 283 274 270 246 181 183 172 169 187 216 216 204 157 137 194 230 229 229 240 251 259 266 273 275 275 277 279 277 275 276 278 279 278 281 291 289 278 281 284 286 289 285 274 270 272 276 279 277 269 265 267 276 62 67 41 21
248 255 268 277 278 279 281 288 295 303 311 321 341 344 317 330 308 305 315 293 283 285 280 278 272 262 259 259 259 261 265 276 273 262 258 193 170 195 178 176 214 228 184 168 175 194 217 235 236 237 245 255 261 269 279 276 273 273 272 273 275 278 283 283 281 283 301 292 284 293 294 288 282 275 272 274 274 267 262 257 257 265 287 57 67 36 27 50
251 254 267 281 284 284 286 291 297 303 312 322 332 332 327 330 319 320 315 278 283 289 279 270 262 258 262 261 260 262 255 253 254 243 231 184 179 204 196 197 231 239 198 193 226 240 239 247 238 240 247 255 259 260 264 268 265 259 259 268 275 279 284 289 296 305 290 272 283 296 294 281 270 264 267 270 257 252 254 256 258 268 42 72 61 55 65 68
251 254 261 272 278 284 287 290 298 300 306 318 314 315 330 328 328 336 317 265 273 276 261 257 253 251 259 256 258 256 237 237 243 224 206 195 195 201 208 224 237 242 229 225 238 245 257 276 279 239 247 251 260 261 256 260 263 258 256 259 268 277 284 294 306 311 301 283 281 298 292 279 265 249 236 203 200 232 258 263 260 95 93 93 81 75 74 69
249 251 256 263 272 278 282 292 299 294 302 312 303 308 328 332 341 347 324 266 260 247 243 246 239 239 241 236 239 224 212 218 215 200 194 200 204 188 209 227 229 245 242 238 247 253 262 277 95 212 243 244 254 260 253 255 270 271 260 258 269 283 292 297 306 313 308 289 59 354 315 296 86 250 246 237 225 247 262 270 85 91 92 92 86 78 76 71
252 251 255 262 272 276 282 297 296 291 305 306 298 310 325 335 341 345 338 272 263 203 185 196 192 208 218 237 185 175 193 202 206 207 197 199 199 192 230 200 203 257 272 251 258 261 261 272 91 228 244 240 242 252 254 253 265 273 279 300 293 294 295 298 306 309 297 288 313 8 304 284 281 273 263 260 260 259 265 45 81 87 86 85 79 72 74 74
257 255 253 258 268 269 277 288 284 290 298 292 297 310 321 333 336 342 342 264 267 138 129 151 177 200 220 203 176 185 199 140 166 196 195 199 195 204 241 196 183 233 150 280 275 235 211 203 124 205 225 231 233 248 248 231 246 266 24 5 321 304 299 301 304 289 281 293 288 235 229 265 284 284 261 224 242 254 231 82 87 90 88 88 84 77 71 68
258 253 248 251 253 251 266 282 289 294 281 277 296 306 321 329 329 338 297 271 287 108 119 133 152 201 201 165 174 202 3 120 138 174 188 197 186 193 236 235 258 244 164 202 251 157 158 194 189 186 203 225 228 239 206 197 236 280 62 8 327 312 299 300 293 283 288 299 288 213 193 254 282 293 186 206 241 247 97 91 93 89 83 84 86 85 77 67
253 245 243 242 240 245 265 280 291 291 278 278 294 304 324 320 315 318 254 264 24 112 123 125 144 152 130 161 189 206 219 163 27 151 177 193 191 194 244 262 290 285 213 220 245 262 177 162 203 196 208 239 235 241 92 203 236 50 77 303 283 253 265 270 266 281 290 279 276 220 186 242 297 287 182 212 257 133 111 103 99 97 89 81 75 74 73 68
246 241 240 234 234 248 264 276 282 284 280 281 290 311 323 312 297 258 230 248 350 74 125 136 139 150 174 194 195 194 207 182 114 142 160 178 196 207 265 298 291 280 247 237 249 260 240 109 49 235 235 256 102 79 37 284 268 44 287 281 276 250 242 243 245 268 273 263 277 225 189 217 296 303 160 171 62 97 117 109 102 99 91 82 69 61 62 64
240 240 240 239 244 252 260 266 268 268 266 270 283 314 316 299 254 241 233 271 343 49 139 150 141 166 205 232 204 185 200 179 153 166 174 162 184 203 232 250 226 245 254 244 243 249 231 189 208 228 229 230 136 163 145 85 106 242 260 283 296 268 232 229 219 200 245 265 308 171 186 220 250 253 76 115 79 60 68 97 104 95 83 77 69 64 62 62
242 242 244 247 251 254 256 257 259 256 248 250 256 293 326 276 231 234 233 41 356 218 161 93 85 146 222 279 254 168 199 179 169 190 208 176 189 208 213 220 238 261 262 261 259 246 225 215 209 203 209 206 205 213 178 160 181 213 238 251 281 286 264 254 237 224 253 258 92 120 187 238 247 257 266 253 69 64 62 81 99 102 90 80 73 68 65 63
247 246 247 248 250 251 249 246 241 232 227 227 218 134 41 241 235 239 231 234 323 14 41 37 43 45 346 267 239 129 292 251 182 195 210 197 247 248 232 228 233 261 269 282 300 288 274 225 187 182 203 197 198 211 219 208 187 193 210 219 243 279 279 273 273 268 271 258 136 145 285 263 264 280 274 262 72 78 80 77 85 93 89 83 77 70 66 62
246 247 250 249 248 244 236 234 229 219 215 207 175 121 200 228 233 29 224 225 261 42 44 32 24 293 272 269 289 1 266 272 220 200 216 220 242 254 249 232 209 223 257 271 283 267 273 281 180 178 172 171 188 221 261 346 187 199 207 225 243 261 263 270 279 272 278 291 264 206 253 270 284 42 82 87 80 80 83 82 82 81 81 81 76 70 64 62
243 245 248 247 243 237 228 227 228 221 211 196 168 185 220 226 214 199 224 230 233 69 64 14 14 297 279 267 269 249 235 265 304 224 245 244 249 253 259 244 202 203 234 249 262 253 260 272 147 126 115 164 187 223 279 353 258 207 176 236 246 258 258 265 274 277 290 298 280 236 241 269 279 272 102 94 85 79 79 82 81 77 78 77 71 66 61 62
242 242 244 241 237 234 229 226 225 219 216 207 199 222 227 232 226 219 231 233 218 97 71 275 204 257 275 264 242 211 191 233 271 243 248 245 253 254 254 260 197 193 205 232 265 269 263 266 113 114 218 177 175 265 122 268 281 112 149 236 253 310 283 273 272 277 279 274 270 258 261 268 273 268 111 96 87 82 78 75 77 78 78 74 68 63 59 60
244 243 245 241 237 236 231 224 217 212 218 221 223 228 229 233 233 233 208 114 179 109 147 250 223 237 266 270 252 207 172 199 212 212 248 240 246 246 236 239 187 201 221 240 270 279 284 280 237 209 228 153 70 19 156 238 279 210 221 286 11 315 257 257 262 269 263 263 263 253 264 273 275 269 117 107 96 88 82 76 79 77 73 70 66 62 59 58
254 258 258 253 247 245 239 230 220 209 212 232 238 240 247 227 225 224 187 155 201 183 214 243 238 243 259 266 275 239 174 189 205 201 236 242 233 209 213 223 119 180 229 209 243 303 330 287 272 252 255 132 110 279 242 206 217 257 292 356 338 263 258 243 243 260 259 263 263 250 258 264 262 266 159 122 111 98 90 78 74 67 65 66 64 61 55 53
265 270 268 260 255 253 244 225 210 199 202 232 240 241 247 240 235 231 210 188 203 213 232 247 244 252 257 259 274 258 189 211 239 232 236 243 234 187 172 211 102 116 120 152 253 297 346 275 276 116 111 130 146 222 247 225 202 279 312 273 236 259 278 264 257 272 266 263 265 259 257 253 257 297 78 109 110 108 102 91 83 75 72 69 63 57 45 44
263 263 264 256 254 252 225 198 195 195 201 227 235 235 242 251 244 231 222 216 217 225 241 249 243 248 254 254 263 258 226 232 246 247 244 250 254 191 104 35 39 100 76 137 263 285 231 251 267 253 155 197 225 234 266 269 248 227 234 233 230 226 272 282 265 256 260 264 263 260 257 249 264 41 86 105 103 109 115 116 120 116 105 95 80 70 55 46
242 234 252 241 241 230 191 173 186 201 209 229 235 237 235 241 236 209 211 216 224 235 246 252 249 247 252 254 256 254 246 242 241 246 248 245 250 242 79 44 13 52 38 260 258 278 254 246 261 268 254 243 256 321 359 319 305 284 263 255 260 262 266 271 260 241 240 257 262 262 261 254 71 55 90 104 100 111 123 129 135 140 140 136 125 98 74 48
217 227 243 223 217 199 175 167 196 208 210 228 232 232 223 225 235 212 197 204 217 229 234 244 250 249 249 252 253 250 243 242 239 242 248 245 250 261 43 56 51 44 8 307 358 40 4 305 260 265 261 264 281 318 30 345 313 287 273 273 279 276 264 260 264 268 265 270 288 270 260 256 71 47 79 99 106 109 117 129 137 150 158 157 163 123 48 21
208 223 229 212 197 181 172 179 216 206 218 236 238 238 219 212 231 215 190 196 210 216 215 222 232 235 238 241 245 243 238 240 239 237 244 251 250 291 39 56 74 59 4 290 275 72 66 237 250 257 261 274 280 286 81 68 268 243 249 358 348 277 284 275 270 294 291 275 285 271 257 247 99 191 125 142 157 146 144 149 151 164 169 170 180 161 26 11
219 224 222 206 185 178 183 209 210 208 226 234 239 240 232 231 231 218 205 201 203 209 216 223 231 233 235 239 243 242 240 241 239 236 245 254 241 86 56 39 76 104 339 263 221 295 274 254 264 266 267 272 263 244 142 101 115 155 216 1 281 257 271 266 245 262 251 229 236 253 265 281 163 188 197 193 187 179 174 169 174 180 172 177 198 205 306 346
217 218 214 199 184 186 206 239 222 221 223 224 235 238 235 239 230 221 223 221 216 220 227 230 237 240 235 227 234 240 235 238 246 241 237 246 203 108 66 31 50 80 79 104 128 150 266 260 275 272 264 260 258 263 276 290 59 9 259 251 258 257 256 258 259 264 258 237 236 258 275 290 272 227 226 221 201 180 172 176 182 175 161 177 207 219 256 301
213 214 200 190 191 202 225 246 245 245 228 222 235 237 235 241 232 214 218 232 233 231 236 245 243 247 238 224 224 238 233 232 237 236 229 227 202 123 80 55 63 84 102 115 135 152 253 248 241 245 251 256 264 277 290 293 287 286 282 277 275 269 264 267 266 260 272 292 280 267 269 276 281 276 273 272 241 161 155 170 166 151 161 198 235 247 262 278
231 233 191 179 199 218 232 236 232 238 235 228 232 235 235 240 241 222 209 227 238 232 237 245 232 229 231 223 230 246 245 242 240 239 246 246 229 116 100 92 80 99 123 127 152 183 232 256 248 247 250 255 263 271 277 282 281 282 284 280 278 276 269 260 254 261 279 286 273 270 275 277 281 283 286 294 295 134 128 109 89 18 301 289 285 275 274 275
233 270 208 182 200 220 224 224 222 224 232 237 239 244 241 238 239 235 220 222 234 229 228 234 230 231 234 233 238 246 248 248 244 240 244 246 234 176 136 108 78 108 144 160 170 190 254 268 265 266 267 266 270 273 275 278 280 281 278 274 274 275 268 260 260 266 270 268 270 280 280 278 282 284 287 299 22 109 97 65 7 312 310 315 309 300 294 289
235 288 269 207 210 227 215 207 211 218 228 235 240 247 246 241 239 239 226 222 233 227 226 237 236 230 234 239 239 240 246 248 247 240 218 123 117 211 207 156 83 118 143 179 196 226 264 262 265 276 278 271 269 270 273 278 280 277 274 273 272 269 266 268 273 274 271 268 271 275 274 274 277 282 287 20 90 87 64 43 330 329 337 336 331 324 318 313
236 271 260 224 233 242 75 156 192 208 222 224 230 241 241 242 244 241 232 253 239 224 227 245 238 211 221 233 220 223 233 183 103 82 100 94 74 200 231 279 122 128 150 182 209 256 260 261 277 297 290 273 266 267 274 279 279 277 276 273 269 266 268 272 274 274 272 270 270 270 271 273 280 308 82 100 91 43 14 346 332 337 344 339 331 326 326 325
238 245 234 254 246 200 171 186 192 199 216 214 221 236 235 237 244 241 225 327 251 231 182 210 189 126 106 183 212 234 215 94 90 84 103 196 276 312 315 299 108 132 201 213 233 252 255 266 284 292 280 268 267 274 280 281 280 275 270 265 262 263 267 269 269 271 272 271 272 271 271 275 357 83 91 96 62 16 345 338 331 324 334 335 324 316 317 319
233 238 233 264 262 205 186 196 201 207 222 219 219 230 233 229 220 207 198 127 98 165 158 148 152 158 236 239 255 341 76 80 71 72 80 332 281 277 269 260 255 254 250 254 262 252 249 261 269 271 269 269 277 287 297 303 283 270 259 254 257 261 266 268 270 269 267 268 271 274 278 292 93 91 72 46 26 350 331 328 320 312 317 321 313 308 308 311